Regional Weather Roundup
Issued by NWS

Home | Current Version | Previous Version | Text Only | Print | Product List | Glossary On
Versions: 1 2 3 4 5 6 7 8 9 10 11 12 13 14 15 16 17 18 19 20 21 22 23 24 25 26 27 28 29 30 31 32 33 34 35 36 37 38 39 40 41 42 43 44 45 46 47 48 49 50
000
ASUS43 KFSD 260510
RWRSD

WEATHER ROUNDUP FOR SOUTH DAKOTA
NATIONAL WEATHER SERVICE SIOUX FALLS SD
1200 AM CDT FRI MAY 26 2017

NOTE: "FAIR" INDICATES FEW OR NO CLOUDS BELOW 12,000 FEET WITH NO
SIGNIFICANT WEATHER AND/OR OBSTRUCTIONS TO VISIBILITY.


SDZ001>005-009-010-012>017-260600-
NORTHWEST AND NORTH CENTRAL SOUTH DAKOTA

CITY           SKY/WX    TMP DP  RH WIND       PRES   REMARKS
BUFFALO          N/A     48  41  76 W13       29.70S
FAITH            N/A     49  42  77 W16       29.73S
MOBRIDGE       CLEAR     54  44  69 W10       29.67R
$$

SDZ012>016-024>037-041>051-057-063-072>074-260600-
SOUTHWEST AND SOUTH CENTRAL SOUTH DAKOTA

CITY           SKY/WX    TMP DP  RH WIND       PRES   REMARKS
RAPID CTY ARPT MOCLDY    48  39  71 NW9       29.79R
PIERRE         CLOUDY    59  42  53 NW18G29   29.69R
CUSTER         CLOUDY    45  27  49 NW9       29.85R
ELLSWORTH AFB  CLEAR     49  39  68 NW14      29.78R
PHILIP         CLOUDY    57  41  55 NW18      29.75R
PINE RIDGE     CLEAR     53  41  63 E8G18     29.81R
SPEARFISH      FAIR      48  37  66 W13       29.84R
WINNER         MOCLDY    58  47  66 NW7       29.72R
$$

SDZ004>011-016>023-039-040-260600-
NORTHEAST SOUTH DAKOTA

CITY           SKY/WX    TMP DP  RH WIND       PRES   REMARKS
ABERDEEN       CLEAR     60  42  51 NW10      29.62R
WATERTOWN      CLOUDY    53  52  96 S5        29.63R
BROOKINGS      CLEAR     54  52  93 CALM      29.65R
SISSETON         N/A     56  54  93 S8        29.59R
$$

SDZ017-020-022-023-036>040-048>070-260600-
SOUTHEAST SOUTH DAKOTA

CITY           SKY/WX    TMP DP  RH WIND       PRES   REMARKS
SIOUX FALLS    PTCLDY    53  50  89 CALM      29.65R
HURON          PTCLDY    58  52  80 S7        29.63R
CHAMBERLAIN    PTCLDY    59  47  64 W9        29.69R
MITCHELL       MOCLDY    61  54  77 SW5       29.64R
YANKTON        CLOUDY    61  53  75 NE5       29.64S
$$

ABBREVIATIONS USED IN REMARKS
   TC - TEMPERATURE IN CELSIUS
  WCI - WIND CHILL INDEX
   HX - HEAT INDEX
  VSB - VISIBILITY




USA.gov is the U.S. government's official web portal to all federal, state and local government web resources and services.